Find Starlink 35219

NORAD ID: 66443 Int'l Des: 2025-259 Owner: SPXS Country: US Constellation: starlink operational
LEOCIRCULAR

实时位置

正在加载3D地球...

关于 Starlink 35219

正在加载描述...

即将过境

Passes for default location (London). Set your location on the main map for personalized predictions.

高度历史

Loading altitude history...

两行轨道根数

1 66443U 25259X 26106.26625144 .00008241 00000-0 30862-3 0 9998
2 66443 43.0036 62.5157 0001441 253.1369 106.9324 15.27584725 25127
Epoch: Apr 16, 2026 • Age: 29 hours

当前状态

高度 482.1 km
速度 7.63 km/s
星下点 10.34°N, 151.44°W
发射日期 Nov 11, 2025
运行时间 0.4 years
类型 internet

技术详情

分类 Payload
质量 575.00 kg
干质量 530.00 kg
总质量 575.00 kg
长度 0.30 m
直径 4.10 m
跨度 29.00 m
形状 Box + pan
制造商 SPXS
平台类型 Starlink V2MO
阶段状态 In Orbit
所有者/国家 SPXS/US

Most Searched